sat.trackr.live / text

‹ back to catalog

STARLINK-2549

NORAD 48314 · 2021-036AQ

PAYLOAD ACTIVE UNKNOWN

§ Identity

Operator
Country
US
Launch date
2021-04-29
Launch site
AFETR
Launch vehicle
Mass (kg)
RCS (m²)

Purposes: comms

External: N2YO · Heavens-Above · Gunter

§ Orbital elements

Epoch: 2026-05-25T02:38:09.978144Z

Period
94.01 min
Inclination
53.1607°
Eccentricity
0.0001652
Mean motion
15.31700461 rev/d
Perigee alt
469.6 km
Apogee alt
471.9 km
Semi-major
6,848.9 km
B*
2.1367e-6
RAAN
95.4555°
Arg perigee
94.7006°
Mean anomaly
265.4184°
Rev number
27,988

§ Raw data

STARLINK-25491 48314U 21036AQ  26145.10983771 -.00000299  00000+0  21367-5 0  99902 48314  53.1607  95.4555 0001652  94.7006 265.4184 15.31700461279889

JSON: /api/v1/satellites/48314 · /tle

For live sub-satellite position, see the globe view (requires WebGL).

§ Visibility from observer

Set your observer location to see the next 7 days of passes ≥ 10°. The values pass through the URL so the page stays shareable.

No JS? Fill the form by hand. The geolocation button needs JavaScript.